����������;��������(kWh)
2017-08-07 00:00;85,85
2017-08-07 00:15;86,35
2017-08-07 00:30;86,25
2017-08-07 00:45;87,9
2017-08-07 01:00;84,35
2017-08-07 01:15;84,7
2017-08-07 01:30;84,4
2017-08-07 01:45;85,4
2017-08-07 02:00;84,9
2017-08-07 02:15;84,75
2017-08-07 02:30;84,05
2017-08-07 02:45;84,15
2017-08-07 03:00;84
2017-08-07 03:15;82,6
2017-08-07 03:30;86,4
2017-08-07 03:45;83,25
2017-08-07 04:00;84,2
2017-08-07 04:15;85,55
2017-08-07 04:30;82,4
2017-08-07 04:45;85,25
2017-08-07 05:00;85
2017-08-07 05:15;84,15
2017-08-07 05:30;82,85
2017-08-07 05:45;82,4
2017-08-07 06:00;83,7
2017-08-07 06:15;82,45
2017-08-07 06:30;80,2
2017-08-07 06:45;78,35
2017-08-07 07:00;75,55
2017-08-07 07:15;79,9
2017-08-07 07:30;82,2
2017-08-07 07:45;82,05
2017-08-07 08:00;83,55
2017-08-07 08:15;83,95
2017-08-07 08:30;85
2017-08-07 08:45;87,2
2017-08-07 09:00;85,95
2017-08-07 09:15;87,65
2017-08-07 09:30;87,35
2017-08-07 09:45;88,55
2017-08-07 10:00;90,15
2017-08-07 10:15;90,45
2017-08-07 10:30;94,85
2017-08-07 10:45;94,65
2017-08-07 11:00;97,3
2017-08-07 11:15;97,7
2017-08-07 11:30;98,3
2017-08-07 11:45;103,3
2017-08-07 12:00;105,9
2017-08-07 12:15;104
2017-08-07 12:30;102,6
2017-08-07 12:45;103,35
2017-08-07 13:00;103,3
2017-08-07 13:15;100,55
2017-08-07 13:30;102,95
2017-08-07 13:45;103,75
2017-08-07 14:00;100,95
2017-08-07 14:15;103,05
2017-08-07 14:30;105,2
2017-08-07 14:45;100
2017-08-07 15:00;101
2017-08-07 15:15;99,35
2017-08-07 15:30;98,85
2017-08-07 15:45;100,2
2017-08-07 16:00;102,4
2017-08-07 16:15;99,3
2017-08-07 16:30;99,55
2017-08-07 16:45;98,75
2017-08-07 17:00;101,35
2017-08-07 17:15;103,3
2017-08-07 17:30;101,85
2017-08-07 17:45;100,25
2017-08-07 18:00;99,55
2017-08-07 18:15;103,55
2017-08-07 18:30;100,85
2017-08-07 18:45;101,5
2017-08-07 19:00;98,95
2017-08-07 19:15;93,9
2017-08-07 19:30;95,65
2017-08-07 19:45;95,65
2017-08-07 20:00;93,35
2017-08-07 20:15;95,75
2017-08-07 20:30;96,85
2017-08-07 20:45;101,4
2017-08-07 21:00;98,3
2017-08-07 21:15;97,8
2017-08-07 21:30;100,6
2017-08-07 21:45;96,05
2017-08-07 22:00;96,55
2017-08-07 22:15;104
2017-08-07 22:30;101
2017-08-07 22:45;98
2017-08-07 23:00;101,15
2017-08-07 23:15;90,15
2017-08-07 23:30;89,6
2017-08-07 23:45;88,4
2017-08-08 00:00;90,9
2017-08-08 00:15;89,9
2017-08-08 00:30;88,8
2017-08-08 00:45;89,45
2017-08-08 01:00;88,25
2017-08-08 01:15;87,6
2017-08-08 01:30;85,25
2017-08-08 01:45;86,5
2017-08-08 02:00;84,75
2017-08-08 02:15;86,6
2017-08-08 02:30;86
2017-08-08 02:45;83,55
2017-08-08 03:00;87
2017-08-08 03:15;85,85
2017-08-08 03:30;84,15
2017-08-08 03:45;85,15
2017-08-08 04:00;85,7
2017-08-08 04:15;83,1
2017-08-08 04:30;86,5
2017-08-08 04:45;84,65
2017-08-08 05:00;85
2017-08-08 05:15;85,3
2017-08-08 05:30;83,45
2017-08-08 05:45;83,55
2017-08-08 06:00;84,85
2017-08-08 06:15;81,55
2017-08-08 06:30;82,45
2017-08-08 06:45;77,8
2017-08-08 07:00;79,45
2017-08-08 07:15;80,5
2017-08-08 07:30;83,3
2017-08-08 07:45;87,7
2017-08-08 08:00;84,1
2017-08-08 08:15;86,65
2017-08-08 08:30;87,35
2017-08-08 08:45;88,65
2017-08-08 09:00;87,95
2017-08-08 09:15;91,3
2017-08-08 09:30;91,55
2017-08-08 09:45;89,8
2017-08-08 10:00;92,45
2017-08-08 10:15;93,2
2017-08-08 10:30;94,55
2017-08-08 10:45;97,05
2017-08-08 11:00;98,05
2017-08-08 11:15;98,3
2017-08-08 11:30;100,6
2017-08-08 11:45;103,4
2017-08-08 12:00;101,25
2017-08-08 12:15;101,15
2017-08-08 12:30;103,95
2017-08-08 12:45;103,9
2017-08-08 13:00;101,7
2017-08-08 13:15;109,05
2017-08-08 13:30;107,1
2017-08-08 13:45;105,9
2017-08-08 14:00;111,2
2017-08-08 14:15;110,2
2017-08-08 14:30;107,35
2017-08-08 14:45;107,1
2017-08-08 15:00;108,25
2017-08-08 15:15;104,85
2017-08-08 15:30;104,1
2017-08-08 15:45;104,45
2017-08-08 16:00;99,85
2017-08-08 16:15;100,7
2017-08-08 16:30;100
2017-08-08 16:45;97,9
2017-08-08 17:00;100,45
2017-08-08 17:15;97,5
2017-08-08 17:30;96,2
2017-08-08 17:45;94
2017-08-08 18:00;96,1
2017-08-08 18:15;92,8
2017-08-08 18:30;97,55
2017-08-08 18:45;94,75
2017-08-08 19:00;98,1
2017-08-08 19:15;91,45
2017-08-08 19:30;94,4
2017-08-08 19:45;93
2017-08-08 20:00;92,6
2017-08-08 20:15;94,6
2017-08-08 20:30;92,75
2017-08-08 20:45;92,3
2017-08-08 21:00;92,3
2017-08-08 21:15;90,9
2017-08-08 21:30;92,7
2017-08-08 21:45;91,3
2017-08-08 22:00;90,8
2017-08-08 22:15;99,4
2017-08-08 22:30;96,9
2017-08-08 22:45;94,8
2017-08-08 23:00;100
2017-08-08 23:15;87,7
2017-08-08 23:30;88,3
2017-08-08 23:45;88,95
2017-08-09 00:00;89,35
2017-08-09 00:15;87,45
2017-08-09 00:30;88,8
2017-08-09 00:45;90,55
2017-08-09 01:00;89,8
2017-08-09 01:15;87,4
2017-08-09 01:30;88,75
2017-08-09 01:45;87,7
2017-08-09 02:00;89,35
2017-08-09 02:15;88,9
2017-08-09 02:30;89,4
2017-08-09 02:45;90,3
2017-08-09 03:00;86,3
2017-08-09 03:15;88,55
2017-08-09 03:30;87,95
2017-08-09 03:45;88,6
2017-08-09 04:00;84,55
2017-08-09 04:15;85,4
2017-08-09 04:30;85,85
2017-08-09 04:45;84,15
2017-08-09 05:00;86,4
2017-08-09 05:15;84,35
2017-08-09 05:30;86,05
2017-08-09 05:45;83,45
2017-08-09 06:00;85,1
2017-08-09 06:15;84,9
2017-08-09 06:30;81,65
2017-08-09 06:45;80,65
2017-08-09 07:00;77,9
2017-08-09 07:15;81,3
2017-08-09 07:30;82,95
2017-08-09 07:45;84,85
2017-08-09 08:00;85,05
2017-08-09 08:15;85,85
2017-08-09 08:30;86,7
2017-08-09 08:45;85,75
2017-08-09 09:00;87,05
2017-08-09 09:15;88,8
2017-08-09 09:30;88,1
2017-08-09 09:45;92,9
2017-08-09 10:00;95
2017-08-09 10:15;96,35
2017-08-09 10:30;99,3
2017-08-09 10:45;97,75
2017-08-09 11:00;99,65
2017-08-09 11:15;100,9
2017-08-09 11:30;104,35
2017-08-09 11:45;102,45
2017-08-09 12:00;109,2
2017-08-09 12:15;103,75
2017-08-09 12:30;107
2017-08-09 12:45;108,25
2017-08-09 13:00;106,05
2017-08-09 13:15;106
2017-08-09 13:30;104,15
2017-08-09 13:45;104,35
2017-08-09 14:00;102,8
2017-08-09 14:15;103,5
2017-08-09 14:30;103,3
2017-08-09 14:45;103,25
2017-08-09 15:00;97,4
2017-08-09 15:15;98,35
2017-08-09 15:30;102,8
2017-08-09 15:45;102,4
2017-08-09 16:00;96,35
2017-08-09 16:15;97,9
2017-08-09 16:30;98,15
2017-08-09 16:45;94,4
2017-08-09 17:00;97,7
2017-08-09 17:15;96,6
2017-08-09 17:30;95,8
2017-08-09 17:45;92,1
2017-08-09 18:00;94,45
2017-08-09 18:15;94,25
2017-08-09 18:30;94,45
2017-08-09 18:45;93,95
2017-08-09 19:00;92,1
2017-08-09 19:15;88
2017-08-09 19:30;87,2
2017-08-09 19:45;87,7
2017-08-09 20:00;86,85
2017-08-09 20:15;88,05
2017-08-09 20:30;89,25
2017-08-09 20:45;90,35
2017-08-09 21:00;87,65
2017-08-09 21:15;89
2017-08-09 21:30;88,8
2017-08-09 21:45;85,75
2017-08-09 22:00;88,8
2017-08-09 22:15;98,5
2017-08-09 22:30;95,9
2017-08-09 22:45;94,35
2017-08-09 23:00;100,6
2017-08-09 23:15;87,15
2017-08-09 23:30;90,2
2017-08-09 23:45;91,9
2017-08-10 00:00;92,35
2017-08-10 00:15;89,25
2017-08-10 00:30;90,8
2017-08-10 00:45;91,35
2017-08-10 01:00;89,8
2017-08-10 01:15;88,65
2017-08-10 01:30;88,75
2017-08-10 01:45;86,7
2017-08-10 02:00;83,75
2017-08-10 02:15;86
2017-08-10 02:30;85,25
2017-08-10 02:45;84,2
2017-08-10 03:00;84,05
2017-08-10 03:15;84,05
2017-08-10 03:30;84,4
2017-08-10 03:45;83,1
2017-08-10 04:00;84,25
2017-08-10 04:15;86,2
2017-08-10 04:30;84,3
2017-08-10 04:45;84,7
2017-08-10 05:00;83,5
2017-08-10 05:15;82,75
2017-08-10 05:30;83,35
2017-08-10 05:45;83,4
2017-08-10 06:00;81,4
2017-08-10 06:15;81,55
2017-08-10 06:30;81,45
2017-08-10 06:45;79,5
2017-08-10 07:00;77,75
2017-08-10 07:15;79,3
2017-08-10 07:30;82,6
2017-08-10 07:45;85,2
2017-08-10 08:00;84,65
2017-08-10 08:15;83,6
2017-08-10 08:30;84,5
2017-08-10 08:45;85,3
2017-08-10 09:00;85,8
2017-08-10 09:15;85,8
2017-08-10 09:30;86,4
2017-08-10 09:45;88,05
2017-08-10 10:00;91,2
2017-08-10 10:15;93,35
2017-08-10 10:30;94,6
2017-08-10 10:45;96,8
2017-08-10 11:00;101,45
2017-08-10 11:15;103,5
2017-08-10 11:30;102,35
2017-08-10 11:45;102,85
2017-08-10 12:00;105,45
2017-08-10 12:15;86,3
2017-08-10 12:30;100,55
2017-08-10 12:45;96,35
2017-08-10 13:00;97,25
2017-08-10 13:15;98,3
2017-08-10 13:30;83,35
2017-08-10 13:45;97,1
2017-08-10 14:00;95,1
2017-08-10 14:15;95,6
2017-08-10 14:30;93,4
2017-08-10 14:45;93,7
2017-08-10 15:00;92
2017-08-10 15:15;93,05
2017-08-10 15:30;91,25
2017-08-10 15:45;93,15
2017-08-10 16:00;92,4
2017-08-10 16:15;92,95
2017-08-10 16:30;87,2
2017-08-10 16:45;91,6
2017-08-10 17:00;90,9
2017-08-10 17:15;89,5
2017-08-10 17:30;90,2
2017-08-10 17:45;87,9
2017-08-10 18:00;88,75
2017-08-10 18:15;89,05
2017-08-10 18:30;87,25
2017-08-10 18:45;88,55
2017-08-10 19:00;88,6
2017-08-10 19:15;84,45
2017-08-10 19:30;85,75
2017-08-10 19:45;85,2
2017-08-10 20:00;83,2
2017-08-10 20:15;85
2017-08-10 20:30;87,05
2017-08-10 20:45;85,7
2017-08-10 21:00;88,3
2017-08-10 21:15;88,25
2017-08-10 21:30;86,75
2017-08-10 21:45;87,75
2017-08-10 22:00;87,3
2017-08-10 22:15;92,5
2017-08-10 22:30;92,5
2017-08-10 22:45;89,2
2017-08-10 23:00;94,4
2017-08-10 23:15;82,8
2017-08-10 23:30;84,5
2017-08-10 23:45;85,3
2017-08-11 00:00;83,8
2017-08-11 00:15;83,8
2017-08-11 00:30;84,05
2017-08-11 00:45;82,35
2017-08-11 01:00;83,3
2017-08-11 01:15;83
2017-08-11 01:30;83,7
2017-08-11 01:45;85,2
2017-08-11 02:00;85,3
2017-08-11 02:15;84,8
2017-08-11 02:30;87,25
2017-08-11 02:45;88
2017-08-11 03:00;86,1
2017-08-11 03:15;85,5
2017-08-11 03:30;84,05
2017-08-11 03:45;81
2017-08-11 04:00;80,1
2017-08-11 04:15;78,5
2017-08-11 04:30;80,45
2017-08-11 04:45;79,95
2017-08-11 05:00;79,2
2017-08-11 05:15;81,45
2017-08-11 05:30;79,6
2017-08-11 05:45;78,95
2017-08-11 06:00;80,4
2017-08-11 06:15;78,2
2017-08-11 06:30;76,4
2017-08-11 06:45;75,8
2017-08-11 07:00;73,8
2017-08-11 07:15;77
2017-08-11 07:30;77,7
2017-08-11 07:45;80,45
2017-08-11 08:00;77,3
2017-08-11 08:15;81,25
2017-08-11 08:30;80,45
2017-08-11 08:45;83,8
2017-08-11 09:00;83,4
2017-08-11 09:15;84,15
2017-08-11 09:30;85,35
2017-08-11 09:45;82,3
2017-08-11 10:00;87
2017-08-11 10:15;86
2017-08-11 10:30;86,25
2017-08-11 10:45;85,15
2017-08-11 11:00;88,75
2017-08-11 11:15;87,2
2017-08-11 11:30;92,1
2017-08-11 11:45;90,55
2017-08-11 12:00;92,05
2017-08-11 12:15;90,35
2017-08-11 12:30;91
2017-08-11 12:45;89,05
2017-08-11 13:00;90,1
2017-08-11 13:15;90,3
2017-08-11 13:30;88,9
2017-08-11 13:45;90,5
2017-08-11 14:00;88,6
2017-08-11 14:15;91,15
2017-08-11 14:30;91,55
2017-08-11 14:45;89,65
2017-08-11 15:00;88,25
2017-08-11 15:15;85,7
2017-08-11 15:30;86,05
2017-08-11 15:45;87,9
2017-08-11 16:00;87,45
2017-08-11 16:15;90,85
2017-08-11 16:30;85,95
2017-08-11 16:45;90,8
2017-08-11 17:00;88,6
2017-08-11 17:15;88,65
2017-08-11 17:30;89,05
2017-08-11 17:45;91,8
2017-08-11 18:00;91,5
2017-08-11 18:15;90,2
2017-08-11 18:30;89,2
2017-08-11 18:45;89,7
2017-08-11 19:00;88,6
2017-08-11 19:15;83,35
2017-08-11 19:30;82,1
2017-08-11 19:45;79,9
2017-08-11 20:00;80,4
2017-08-11 20:15;76,2
2017-08-11 20:30;84,05
2017-08-11 20:45;82,8
2017-08-11 21:00;84,25
2017-08-11 21:15;81,55
2017-08-11 21:30;82,15
2017-08-11 21:45;81,7
2017-08-11 22:00;82,25
2017-08-11 22:15;89,4
2017-08-11 22:30;89,7
2017-08-11 22:45;86,1
2017-08-11 23:00;91,65
2017-08-11 23:15;81,25
2017-08-11 23:30;82,95
2017-08-11 23:45;81,9
2017-08-12 00:00;83,5
2017-08-12 00:15;81,7
2017-08-12 00:30;82,4
2017-08-12 00:45;82,8
2017-08-12 01:00;82,8
2017-08-12 01:15;83
2017-08-12 01:30;79,1
2017-08-12 01:45;81,5
2017-08-12 02:00;79,75
2017-08-12 02:15;81,1
2017-08-12 02:30;78,1
2017-08-12 02:45;81,1
2017-08-12 03:00;79,65
2017-08-12 03:15;80,25
2017-08-12 03:30;79
2017-08-12 03:45;80,95
2017-08-12 04:00;79,15
2017-08-12 04:15;80,3
2017-08-12 04:30;77
2017-08-12 04:45;80,7
2017-08-12 05:00;79,05
2017-08-12 05:15;80,35
2017-08-12 05:30;79,15
2017-08-12 05:45;79,65
2017-08-12 06:00;79
2017-08-12 06:15;79,05
2017-08-12 06:30;76,95
2017-08-12 06:45;74,55
2017-08-12 07:00;72,55
2017-08-12 07:15;74,25
2017-08-12 07:30;73,8
2017-08-12 07:45;76,75
2017-08-12 08:00;72,4
2017-08-12 08:15;76,1
2017-08-12 08:30;77,85
2017-08-12 08:45;78,5
2017-08-12 09:00;80,95
2017-08-12 09:15;79,6
2017-08-12 09:30;81
2017-08-12 09:45;81,3
2017-08-12 10:00;82
2017-08-12 10:15;82,9
2017-08-12 10:30;81
2017-08-12 10:45;82,65
2017-08-12 11:00;78,25
2017-08-12 11:15;78,05
2017-08-12 11:30;76,4
2017-08-12 11:45;78,45
2017-08-12 12:00;79,8
2017-08-12 12:15;79,45
2017-08-12 12:30;77,65
2017-08-12 12:45;80,15
2017-08-12 13:00;76,8
2017-08-12 13:15;78,55
2017-08-12 13:30;80,45
2017-08-12 13:45;80,35
2017-08-12 14:00;79,8
2017-08-12 14:15;81,9
2017-08-12 14:30;81,05
2017-08-12 14:45;83,9
2017-08-12 15:00;80,85
2017-08-12 15:15;81,45
2017-08-12 15:30;79,85
2017-08-12 15:45;77,3
2017-08-12 16:00;81,25
2017-08-12 16:15;77,85
2017-08-12 16:30;81,15
2017-08-12 16:45;80,05
2017-08-12 17:00;82,65
2017-08-12 17:15;79,95
2017-08-12 17:30;81,2
2017-08-12 17:45;80,75
2017-08-12 18:00;82,25
2017-08-12 18:15;82,65
2017-08-12 18:30;82,3
2017-08-12 18:45;83,6
2017-08-12 19:00;82,4
2017-08-12 19:15;83,85
2017-08-12 19:30;82,65
2017-08-12 19:45;81,75
2017-08-12 20:00;76,35
2017-08-12 20:15;79,3
2017-08-12 20:30;79,9
2017-08-12 20:45;83,95
2017-08-12 21:00;81,95
2017-08-12 21:15;83,95
2017-08-12 21:30;84,4
2017-08-12 21:45;84,1
2017-08-12 22:00;85,7
2017-08-12 22:15;93,2
2017-08-12 22:30;91,2
2017-08-12 22:45;89,15
2017-08-12 23:00;95,05
2017-08-12 23:15;85,6
2017-08-12 23:30;86,5
2017-08-12 23:45;85,3
2017-08-13 00:00;86,45
2017-08-13 00:15;85,85
2017-08-13 00:30;85,7
2017-08-13 00:45;86,35
2017-08-13 01:00;86,05
2017-08-13 01:15;84,9
2017-08-13 01:30;83,55
2017-08-13 01:45;84
2017-08-13 02:00;84,15
2017-08-13 02:15;84,1
2017-08-13 02:30;83,65
2017-08-13 02:45;84,05
2017-08-13 03:00;84,1
2017-08-13 03:15;83,85
2017-08-13 03:30;83,35
2017-08-13 03:45;83,7
2017-08-13 04:00;84,1
2017-08-13 04:15;83,8
2017-08-13 04:30;84,1
2017-08-13 04:45;83,1
2017-08-13 05:00;82,45
2017-08-13 05:15;83,45
2017-08-13 05:30;81,65
2017-08-13 05:45;83,2
2017-08-13 06:00;82,15
2017-08-13 06:15;81,9
2017-08-13 06:30;80,7
2017-08-13 06:45;77,4
2017-08-13 07:00;73,75
2017-08-13 07:15;76,3
2017-08-13 07:30;76,05
2017-08-13 07:45;76,35
2017-08-13 08:00;75,2
2017-08-13 08:15;77,75
2017-08-13 08:30;76,95
2017-08-13 08:45;78,6
2017-08-13 09:00;79,15
2017-08-13 09:15;78
2017-08-13 09:30;78,35
2017-08-13 09:45;79,55
2017-08-13 10:00;78,3
2017-08-13 10:15;79,7
2017-08-13 10:30;78,7
2017-08-13 10:45;80,25
2017-08-13 11:00;80,75
2017-08-13 11:15;81,5
2017-08-13 11:30;79,6
2017-08-13 11:45;82,4
2017-08-13 12:00;80,25
2017-08-13 12:15;81,65
2017-08-13 12:30;78,65
2017-08-13 12:45;80,8
2017-08-13 13:00;77,75
2017-08-13 13:15;82,3
2017-08-13 13:30;79
2017-08-13 13:45;80,65
2017-08-13 14:00;80,3
2017-08-13 14:15;83,35
2017-08-13 14:30;83,2
2017-08-13 14:45;85,1
2017-08-13 15:00;86,25
2017-08-13 15:15;85,6
2017-08-13 15:30;84,2
2017-08-13 15:45;83,3
2017-08-13 16:00;83,8
2017-08-13 16:15;80,1
2017-08-13 16:30;82,05
2017-08-13 16:45;83,9
2017-08-13 17:00;86,95
2017-08-13 17:15;86,45
2017-08-13 17:30;86,55
2017-08-13 17:45;85,7
2017-08-13 18:00;85,3
2017-08-13 18:15;84,85
2017-08-13 18:30;85,3
2017-08-13 18:45;85,3
2017-08-13 19:00;80,3
2017-08-13 19:15;80,75
2017-08-13 19:30;82,45
2017-08-13 19:45;82,6
2017-08-13 20:00;80,1
2017-08-13 20:15;81,35
2017-08-13 20:30;84,55
2017-08-13 20:45;86,1
2017-08-13 21:00;85,65
2017-08-13 21:15;84,95
2017-08-13 21:30;84,4
2017-08-13 21:45;86,05
2017-08-13 22:00;84,45
2017-08-13 22:15;93,35
2017-08-13 22:30;91,85
2017-08-13 22:45;90,2
2017-08-13 23:00;93,9
2017-08-13 23:15;84,8
2017-08-13 23:30;85,2
2017-08-13 23:45;86,05

